Time,TemperatureF,DewpointF,PressureIn,WindDirection,WindDirectionDegrees,WindSpeedMPH,WindSpeedGustMPH,Humidity,HourlyPrecipIn,Conditions,Clouds,dailyrainin,SoftwareType,DateUTC
2013-12-04 00:13:00,42.8,29.9,29.78,ESE,112,0.0,-999.0,60,-99.99,,,0.00,Acu-Link.com,2013-12-04 08:13:00,
2013-12-04 00:28:00,41.9,29.0,29.78,WNW,292,0.0,-999.0,60,-99.99,,,0.00,Acu-Link.com,2013-12-04 08:28:00,
2013-12-04 00:43:00,41.0,29.0,29.79,West,270,0.0,-999.0,62,-99.99,,,0.00,Acu-Link.com,2013-12-04 08:43:00,
2013-12-04 00:58:00,40.5,29.3,29.79,East,90,0.0,-999.0,64,-99.99,,,0.00,Acu-Link.com,2013-12-04 08:58:00,
2013-12-04 01:14:00,40.1,29.3,29.79,WNW,292,0.0,-999.0,65,-99.99,,,0.00,Acu-Link.com,2013-12-04 09:14:00,
2013-12-04 01:29:00,39.0,28.6,29.79,WNW,292,0.0,-999.0,66,-99.99,,,0.00,Acu-Link.com,2013-12-04 09:29:00,
2013-12-04 01:44:00,39.0,28.2,29.80,NW,315,0.0,-999.0,65,-99.99,,,0.00,Acu-Link.com,2013-12-04 09:44:00,
2013-12-04 01:59:00,39.0,28.2,29.81,NW,315,0.0,-999.0,65,-99.99,,,0.00,Acu-Link.com,2013-12-04 09:59:00,
2013-12-04 02:15:00,38.5,27.4,29.81,West,270,0.0,-999.0,64,-99.99,,,0.00,Acu-Link.com,2013-12-04 10:15:00,
2013-12-04 02:30:00,37.8,27.5,29.81,NW,315,0.0,-999.0,66,-99.99,,,0.00,Acu-Link.com,2013-12-04 10:30:00,
2013-12-04 02:45:00,37.2,27.3,29.81,WNW,292,0.0,-999.0,67,-99.99,,,0.00,Acu-Link.com,2013-12-04 10:45:00,
2013-12-04 03:00:00,36.5,27.7,29.81,NNW,337,0.0,-999.0,70,-99.99,,,0.00,Acu-Link.com,2013-12-04 11:00:00,
2013-12-04 03:15:00,35.8,27.7,29.81,WNW,292,0.0,-999.0,72,-99.99,,,0.00,Acu-Link.com,2013-12-04 11:15:00,
2013-12-04 03:30:00,35.6,27.8,29.82,WNW,292,0.0,-999.0,73,-99.99,,,0.00,Acu-Link.com,2013-12-04 11:30:00,
2013-12-04 03:46:00,35.4,28.6,29.81,WNW,292,0.0,-999.0,76,-99.99,,,0.00,Acu-Link.com,2013-12-04 11:46:00,
2013-12-04 04:01:00,35.4,28.9,29.81,WNW,292,0.0,-999.0,77,-99.99,,,0.00,Acu-Link.com,2013-12-04 12:01:00,
2013-12-04 04:16:00,34.9,28.1,29.82,NNW,337,0.0,-999.0,76,-99.99,,,0.00,Acu-Link.com,2013-12-04 12:16:00,
2013-12-04 05:10:00,34.5,28.0,29.82,NW,315,0.0,-999.0,77,-99.99,,,0.00,Acu-Link.com,2013-12-04 13:10:00,
2013-12-04 08:14:00,42.1,28.8,29.88,SE,135,1.7,-999.0,59,-99.99,,,0.00,Acu-Link.com,2013-12-04 16:14:00,
2013-12-04 10:09:00,54.1,23.4,29.91,ESE,112,1.1,-999.0,30,-99.99,,,0.00,Acu-Link.com,2013-12-04 18:09:00,
2013-12-04 10:31:00,55.0,23.3,29.91,WNW,292,1.7,-999.0,29,-99.99,,,0.00,Acu-Link.com,2013-12-04 18:31:00,
2013-12-04 11:53:00,53.8,23.1,29.90,ESE,112,3.7,-999.0,30,-99.99,,,0.00,Acu-Link.com,2013-12-04 19:53:00,
2013-12-04 12:08:00,51.4,22.5,29.89,NW,315,4.2,-999.0,32,-99.99,,,0.00,Acu-Link.com,2013-12-04 20:08:00,
2013-12-04 12:23:00,52.2,23.2,29.88,NNW,337,2.2,-999.0,32,-99.99,,,0.00,Acu-Link.com,2013-12-04 20:23:00,
2013-12-04 12:38:00,52.0,23.8,29.87,ESE,112,2.2,-999.0,33,-99.99,,,0.00,Acu-Link.com,2013-12-04 20:38:00,
2013-12-04 12:54:00,51.8,23.6,29.87,ENE,67,1.1,-999.0,33,-99.99,,,0.00,Acu-Link.com,2013-12-04 20:54:00,
2013-12-04 13:09:00,51.6,23.5,29.87,SW,225,0.0,-999.0,33,-99.99,,,0.00,Acu-Link.com,2013-12-04 21:09:00,
2013-12-04 13:24:00,51.3,24.6,29.86,SE,135,4.2,-999.0,35,-99.99,,,0.00,Acu-Link.com,2013-12-04 21:24:00,
2013-12-04 13:39:00,50.7,24.1,29.86,East,90,3.2,-999.0,35,-99.99,,,0.00,Acu-Link.com,2013-12-04 21:39:00,
2013-12-04 13:55:00,50.7,24.1,29.85,ENE,67,0.0,-999.0,35,-99.99,,,0.00,Acu-Link.com,2013-12-04 21:55:00,
2013-12-04 14:10:00,50.7,24.1,29.85,NNW,337,0.0,-999.0,35,-99.99,,,0.00,Acu-Link.com,2013-12-04 22:10:00,
2013-12-04 14:25:00,50.7,24.1,29.84,NNW,337,1.1,-999.0,35,-99.99,,,0.00,Acu-Link.com,2013-12-04 22:25:00,
2013-12-04 14:40:00,50.7,24.1,29.85,West,270,0.0,-999.0,35,-99.99,,,0.00,Acu-Link.com,2013-12-04 22:40:00,
2013-12-04 14:55:00,50.7,25.4,29.85,ESE,112,2.7,-999.0,37,-99.99,,,0.00,Acu-Link.com,2013-12-04 22:55:00,
2013-12-04 15:10:00,50.2,28.6,29.85,WSW,247,0.0,-999.0,43,-99.99,,,0.00,Acu-Link.com,2013-12-04 23:10:00,
2013-12-04 15:26:00,49.8,25.2,29.85,SE,135,1.7,-999.0,38,-99.99,,,0.00,Acu-Link.com,2013-12-04 23:26:00,
2013-12-04 15:41:00,49.3,24.8,29.85,ESE,112,2.2,-999.0,38,-99.99,,,0.00,Acu-Link.com,2013-12-04 23:41:00,
2013-12-04 15:56:00,49.1,25.2,29.85,NNW,337,0.0,-999.0,39,-99.99,,,0.00,Acu-Link.com,2013-12-04 23:56:00,
2013-12-04 16:11:00,48.6,28.8,29.85,WNW,292,4.2,-999.0,46,-99.99,,,0.00,Acu-Link.com,2013-12-05 00:11:00,
2013-12-04 16:26:00,47.8,29.6,29.85,WNW,292,2.7,-999.0,49,-99.99,,,0.00,Acu-Link.com,2013-12-05 00:26:00,
2013-12-04 16:41:00,47.5,30.3,29.85,WSW,247,0.0,-999.0,51,-99.99,,,0.00,Acu-Link.com,2013-12-05 00:41:00,
2013-12-04 16:57:00,46.6,30.9,29.85,NW,315,0.0,-999.0,54,-99.99,,,0.00,Acu-Link.com,2013-12-05 00:57:00,
2013-12-04 17:12:00,45.5,30.7,29.85,ENE,67,0.0,-999.0,56,-99.99,,,0.00,Acu-Link.com,2013-12-05 01:12:00,
2013-12-04 17:27:00,44.2,31.2,29.85,WNW,292,0.0,-999.0,60,-99.99,,,0.00,Acu-Link.com,2013-12-05 01:27:00,
2013-12-04 17:42:00,44.8,31.8,29.85,North,0,1.7,-999.0,60,-99.99,,,0.00,Acu-Link.com,2013-12-05 01:42:00,
2013-12-04 17:58:00,44.6,31.6,29.86,West,270,0.0,-999.0,60,-99.99,,,0.00,Acu-Link.com,2013-12-05 01:58:00,
2013-12-04 18:13:00,44.2,32.4,29.86,WNW,292,0.0,-999.0,63,-99.99,,,0.00,Acu-Link.com,2013-12-05 02:13:00,
2013-12-04 18:28:00,43.5,32.1,29.86,South,180,0.0,-999.0,64,-99.99,,,0.00,Acu-Link.com,2013-12-05 02:28:00,
2013-12-04 18:43:00,42.8,32.2,29.87,NNW,337,0.0,-999.0,66,-99.99,,,0.00,Acu-Link.com,2013-12-05 02:43:00,
2013-12-04 18:58:00,42.1,32.3,29.87,West,270,0.0,-999.0,68,-99.99,,,0.00,Acu-Link.com,2013-12-05 02:58:00,
2013-12-04 19:16:00,41.0,31.6,29.87,West,270,0.0,-999.0,69,-99.99,,,0.00,Acu-Link.com,2013-12-05 03:16:00,
2013-12-04 19:41:00,40.6,31.9,29.88,West,270,0.0,-999.0,71,-99.99,,,0.00,Acu-Link.com,2013-12-05 03:41:00,
2013-12-04 19:56:00,39.7,32.1,29.88,West,270,0.0,-999.0,74,-99.99,,,0.00,Acu-Link.com,2013-12-05 03:56:00,
2013-12-04 20:19:00,39.7,32.1,29.88,SSW,202,0.0,-999.0,74,-99.99,,,0.00,Acu-Link.com,2013-12-05 04:19:00,